Find Starlink 31844

NORAD ID: 60583 Int'l Des: 2024-150 Owner: SPXS Country: US Constellation: starlink operational
LEOCIRCULAR

当前视图

正在加载3D地球...

About Starlink 31844

Starlink 31844 (NORAD 60583) is a starlink constellation satellite (v2 mini) launched Aug 20, 2024 by SPXS of US. It operates in LEO, CIRCULAR orbit with a mass of 730.00 kg.

即将过境

Passes for default location (London). Set your location on the main map for personalized predictions.

高度历史

Loading altitude history...

两行轨道根数

1 60583U 24150A 26264.93008253 .00000789 00000-0 37197-4 0 9999
2 60583 53.1590 113.6003 0001224 90.0185 270.0957 15.31706457118114
Epoch: Sep 21, 2026 • Age: 23 hours

当前状态

高度 470.8 km
远地点 / 近地点 N/A
速度 7.63 km/s
星下点 19.84°N, 41.91°W
发射日期 Aug 20, 2024
运行时间 2 years
类型 internet

技术详情

分类 Payload
质量 730.00 kg
干质量 700.00 kg
长度 0.30 m
跨度 29.00 m
形状 ? Box + pan
制造商 SPXS
平台类型 Starlink V2M
阶段状态 In Orbit
所有者/国家 SPXS/US

Most Searched